Tracking 29747 objects as of 9-Oct-2024
HD Live streaming from Space Station
objects crossing your sky now

STARLINK-1147

Track STARLINK-1147 now!
10-day predictions
STARLINK-1147 is classified as:


NORAD ID: 45095
Int'l Code: 2020-006BD
Perigee: 553.1 km
Apogee: 555.8 km
Inclination: 53.1 °
Period: 95.6 minutes
Semi major axis: 6925 km
RCS: Unknown
Launch date: January 29, 2020
Source: United States (US)
Launch site: AIR FORCE EASTERN TEST RANGE (AFETR)
Your satellite tracking list
Your tracking list is empty




NASA's NSSDC Master Catalog

Two Line Element Set (TLE):
1 45095U 20006BD  24283.55006252 -.00002154  00000-0 -12583-3 0  9991
2 45095  53.0537  44.2313 0001943 115.2110 244.9080 15.06365529259570
Source of the keplerian elements: AFSPC